,,,PA_Meas_PMT16A,,PR_Meas_QMR101_102,,RH_Meas_QMH101,,SR_Meas_QMS101,,TA_Meas_QMH101,,GenWind,,GenWind,
date,time,status,PA,status,PR,status,RH,status,SR,status,TA,status,DirAvg,status,SpdAvg,
2010-09-06, 00:00:04,VALID,1000.79,VALID,0,VALID,89.0377,VALID,0,VALID,24.1092,VALID,2,VALID,0.650781,
2010-09-06, 00:01:04,VALID,1000.75,VALID,0,VALID,89.2055,VALID,0,VALID,24.111,VALID,2,VALID,0.193359,
2010-09-06, 00:02:04,VALID,1000.76,VALID,0,VALID,89.3047,VALID,0,VALID,24.0915,VALID,2,VALID,0,
2010-09-06, 00:03:04,VALID,1000.72,VALID,0,VALID,89.1903,VALID,0,VALID,24.0701,VALID,2,VALID,0.121094,
2010-09-06, 00:04:04,VALID,1000.71,VALID,0,VALID,89.0911,VALID,0,VALID,24.0701,VALID,2,VALID,0,
2010-09-06, 00:05:04,VALID,1000.64,VALID,0,VALID,89.2132,VALID,0,VALID,24.0915,VALID,2,VALID,0,
2010-09-06, 00:06:04,VALID,1000.62,VALID,0,VALID,89.4191,VALID,0,VALID,24.072,VALID,2,VALID,0.413281,
2010-09-06, 00:07:04,VALID,1000.61,VALID,0,VALID,89.3734,VALID,0,VALID,24.072,VALID,48,VALID,0.953906,
2010-09-06, 00:08:04,VALID,1000.58,VALID,0,VALID,88.8927,VALID,0,VALID,24.0311,VALID,42,VALID,1.15625,
2010-09-06, 00:09:04,VALID,1000.57,VALID,0,VALID,88.8774,VALID,0,VALID,24.0525,VALID,41,VALID,1.39414,
2010-09-06, 00:10:04,VALID,1000.54,VALID,0,VALID,88.6257,VALID,0,VALID,24.0329,VALID,29,VALID,1.48789,
2010-09-06, 00:11:04,VALID,1000.56,VALID,0,VALID,88.7172,VALID,0,VALID,24.0134,VALID,17,VALID,0.901953,
2010-09-06, 00:12:04,VALID,1000.53,VALID,0,VALID,88.7172,VALID,0,VALID,23.9726,VALID,331,VALID,0.619141,
2010-09-06, 00:13:04,VALID,1000.46,VALID,0,VALID,88.4731,VALID,0,VALID,23.9744,VALID,262,VALID,0.837109,
2010-09-06, 00:14:04,VALID,1000.43,VALID,0,VALID,88.5646,VALID,0,VALID,24.0134,VALID,248,VALID,0.546484,
2010-09-06, 00:15:04,VALID,1000.44,VALID,0,VALID,88.2137,VALID,0,VALID,24.0525,VALID,199,VALID,1.17188,
2010-09-06, 00:16:04,VALID,1000.4,VALID,0,VALID,87.5499,VALID,0,VALID,24.0897,VALID,193,VALID,1.35625,
2010-09-06, 00:17:04,VALID,1000.37,VALID,0,VALID,87.0616,VALID,0,VALID,24.1677,VALID,202,VALID,0.651563,
2010-09-06, 00:18:04,VALID,1000.35,VALID,0,VALID,84.9177,VALID,0,VALID,24.2281,VALID,155,VALID,0.61875,
2010-09-06, 00:19:04,VALID,1000.31,VALID,0,VALID,82.8653,VALID,0,VALID,24.3043,VALID,43,VALID,0.686719,
2010-09-06, 00:20:04,VALID,1000.36,VALID,0,VALID,83.9029,VALID,0,VALID,24.4818,VALID,11,VALID,0.930078,
2010-09-06, 00:21:04,VALID,1000.33,VALID,0,VALID,84.849,VALID,0,VALID,24.5404,VALID,12,VALID,0.732422,
2010-09-06, 00:22:04,VALID,1000.42,VALID,0,VALID,85.5662,VALID,0,VALID,24.519,VALID,53,VALID,0.571484,
2010-09-06, 00:23:04,VALID,1000.41,VALID,0,VALID,85.5662,VALID,0,VALID,24.4818,VALID,74,VALID,0.7875,
2010-09-06, 00:24:04,VALID,1000.4,VALID,0,VALID,85.94,VALID,0,VALID,24.4233,VALID,74,VALID,0.663672,
2010-09-06, 00:25:04,VALID,1000.43,VALID,0,VALID,86.2834,VALID,0,VALID,24.4037,VALID,80,VALID,0.619531,
2010-09-06, 00:26:04,VALID,1000.44,VALID,0,VALID,86.146,VALID,0,VALID,24.3629,VALID,135,VALID,1.48438,
2010-09-06, 00:27:04,VALID,1000.41,VALID,0,VALID,86.9319,VALID,0,VALID,24.3824,VALID,105,VALID,1.21016,
2010-09-06, 00:28:04,VALID,1000.36,VALID,0,VALID,87.3592,VALID,0,VALID,24.4019,VALID,70,VALID,0.903125,
2010-09-06, 00:29:04,VALID,1000.31,VALID,0,VALID,87.115,VALID,0,VALID,24.3824,VALID,8,VALID,0.594922,
2010-09-06, 00:30:04,VALID,1000.28,VALID,0,VALID,86.909,VALID,0,VALID,24.3629,VALID,334,VALID,0.807031,
2010-09-06, 00:31:04,VALID,1000.23,VALID,0,VALID,87.1913,VALID,0,VALID,24.3433,VALID,334,VALID,0.526563,
2010-09-06, 00:32:04,VALID,1000.22,VALID,0,VALID,87.2523,VALID,0,VALID,24.3842,VALID,334,VALID,0.225781,
2010-09-06, 00:33:04,VALID,1000.16,VALID,0,VALID,87.2218,VALID,0,VALID,24.3629,VALID,334,VALID,0.675,
2010-09-06, 00:34:04,VALID,1000.09,VALID,0,VALID,87.176,VALID,0,VALID,24.3629,VALID,360,VALID,1.47852,
2010-09-06, 00:35:04,VALID,1000.12,VALID,0,VALID,86.7335,VALID,0,VALID,24.3433,VALID,17,VALID,1.26641,
2010-09-06, 00:36:04,VALID,1000.15,VALID,0,VALID,86.5809,VALID,0,VALID,24.3452,VALID,17,VALID,0.595703,
2010-09-06, 00:37:04,VALID,1000.13,VALID,0,VALID,86.8251,VALID,0,VALID,24.3043,VALID,17,VALID,0.1375,
2010-09-06, 00:38:04,VALID,1000.14,VALID,0,VALID,87.1989,VALID,0,VALID,24.3062,VALID,217,VALID,0.829297,
2010-09-06, 00:39:04,VALID,1000.09,VALID,0,VALID,86.6572,VALID,0,VALID,24.3452,VALID,217,VALID,0.596094,
2010-09-06, 00:40:04,VALID,1000.06,VALID,0,VALID,86.4665,VALID,0,VALID,24.3842,VALID,225,VALID,0.369531,
2010-09-06, 00:41:04,VALID,1000.04,VALID,0,VALID,86.5046,VALID,0,VALID,24.4037,VALID,344,VALID,1.14375,
2010-09-06, 00:42:04,VALID,999.949,VALID,0,VALID,85.1694,VALID,0,VALID,24.4037,VALID,347,VALID,1.52148,
2010-09-06, 00:43:04,VALID,999.925,VALID,0,VALID,85.5738,VALID,0,VALID,24.4233,VALID,340,VALID,1.52383,
2010-09-06, 00:44:04,VALID,999.9,VALID,0,VALID,85.9324,VALID,0,VALID,24.4233,VALID,325,VALID,1.34922,
2010-09-06, 00:45:04,VALID,999.912,VALID,0,VALID,86.6267,VALID,0,VALID,24.4037,VALID,302,VALID,1.11563,
2010-09-06, 00:46:04,VALID,999.907,VALID,0,VALID,86.4283,VALID,0,VALID,24.3433,VALID,218,VALID,1.26055,
2010-09-06, 00:47:04,VALID,999.896,VALID,0,VALID,86.97,VALID,0,VALID,24.3647,VALID,214,VALID,1.42344,
2010-09-06, 00:48:04,VALID,999.899,VALID,0,VALID,85.4136,VALID,0,VALID,24.3629,VALID,212,VALID,1.22383,
2010-09-06, 00:49:04,VALID,999.926,VALID,0,VALID,84.9482,VALID,0,VALID,24.4428,VALID,220,VALID,0.684766,
2010-09-06, 00:50:04,VALID,999.911,VALID,0,VALID,85.055,VALID,0,VALID,24.4818,VALID,235,VALID,0.690234,
2010-09-06, 00:51:04,VALID,999.914,VALID,0,VALID,85.5051,VALID,0,VALID,24.4604,VALID,242,VALID,0.519141,
2010-09-06, 00:52:04,VALID,999.9,VALID,0,VALID,85.4517,VALID,0,VALID,24.4623,VALID,259,VALID,0.572656,
2010-09-06, 00:53:04,VALID,999.911,VALID,0,VALID,85.3831,VALID,0,VALID,24.4428,VALID,259,VALID,0.591797,
2010-09-06, 00:54:04,VALID,999.88,VALID,0,VALID,85.4899,VALID,0,VALID,24.4623,VALID,259,VALID,0.691406,
2010-09-06, 00:55:04,VALID,999.88,VALID,0,VALID,86.0316,VALID,0,VALID,24.4623,VALID,259,VALID,0.325781,
2010-09-06, 00:56:04,VALID,999.875,VALID,0,VALID,85.8485,VALID,0,VALID,24.4214,VALID,225,VALID,0.347266,
2010-09-06, 00:57:04,VALID,999.912,VALID,0,VALID,85.4517,VALID,0,VALID,24.4214,VALID,225,VALID,0.310937,
2010-09-06, 00:58:04,VALID,999.906,VALID,0,VALID,85.2915,VALID,0,VALID,24.4623,VALID,221,VALID,0.2125,
2010-09-06, 00:59:04,VALID,999.912,VALID,0,VALID,85.7646,VALID,0,VALID,24.4818,VALID,227,VALID,0.755859,
2010-09-06, 01:00:04,VALID,999.888,VALID,0,VALID,86.3673,VALID,0,VALID,24.4818,VALID,227,VALID,0.319141,
2010-09-06, 01:01:04,VALID,999.929,VALID,0,VALID,86.3292,VALID,0,VALID,24.4623,VALID,227,VALID,0.0328125,
2010-09-06, 01:02:04,VALID,999.939,VALID,0,VALID,86.7335,VALID,0,VALID,24.4428,VALID,138,VALID,0.779297,
2010-09-06, 01:03:04,VALID,999.934,VALID,0,VALID,87.3515,VALID,0,VALID,24.4037,VALID,131,VALID,1.01406,
2010-09-06, 01:04:04,VALID,1000,VALID,0,VALID,87.5651,VALID,0,VALID,24.4233,VALID,152,VALID,0.814453,
2010-09-06, 01:05:04,VALID,999.992,VALID,0,VALID,87.794,VALID,0,VALID,24.4409,VALID,165,VALID,1.64414,
2010-09-06, 01:06:04,VALID,1000,VALID,0,VALID,88.0306,VALID,0,VALID,24.4818,VALID,164,VALID,1.64844,
2010-09-06, 01:07:04,VALID,999.978,VALID,0,VALID,88.3205,VALID,0,VALID,24.5209,VALID,151,VALID,1.58789,
2010-09-06, 01:08:04,VALID,999.962,VALID,0,VALID,88.2518,VALID,0,VALID,24.5209,VALID,167,VALID,1.4332,
2010-09-06, 01:09:04,VALID,999.955,VALID,0,VALID,87.8169,VALID,0,VALID,24.5227,VALID,128,VALID,0.975781,
2010-09-06, 01:10:04,VALID,999.915,VALID,0,VALID,87.8398,VALID,0,VALID,24.5013,VALID,99,VALID,1.06914,
2010-09-06, 01:11:04,VALID,999.917,VALID,0,VALID,88.0458,VALID,0,VALID,24.5013,VALID,58,VALID,1.32617,
2010-09-06, 01:12:04,VALID,999.88,VALID,0,VALID,87.7406,VALID,0,VALID,24.4818,VALID,52,VALID,1.28398,
2010-09-06, 01:13:04,VALID,999.858,VALID,0,VALID,87.7101,VALID,0,VALID,24.4428,VALID,39,VALID,1.45469,
2010-09-06, 01:14:04,VALID,999.844,VALID,0,VALID,87.8246,VALID,0,VALID,24.4233,VALID,22,VALID,1.47969,
2010-09-06, 01:15:04,VALID,999.833,VALID,0,VALID,88.1068,VALID,0,VALID,24.3647,VALID,19,VALID,0.949219,
2010-09-06, 01:16:04,VALID,999.823,VALID,0,VALID,88.3586,VALID,0,VALID,24.2848,VALID,18,VALID,0.177734,
2010-09-06, 01:17:04,VALID,999.785,VALID,0,VALID,88.496,VALID,0,VALID,24.2671,VALID,18,VALID,0.0640625,
2010-09-06, 01:18:04,VALID,999.785,VALID,0,VALID,88.6104,VALID,0,VALID,24.2671,VALID,18,VALID,0.0257812,
2010-09-06, 01:19:04,VALID,999.751,VALID,0,VALID,88.6714,VALID,0,VALID,24.2086,VALID,18,VALID,0.583203,
2010-09-06, 01:20:04,VALID,999.693,VALID,0,VALID,88.3663,VALID,0,VALID,24.1696,VALID,5,VALID,0.576172,
2010-09-06, 01:21:04,VALID,999.635,VALID,0,VALID,88.557,VALID,0,VALID,24.1891,VALID,5,VALID,0.453125,
2010-09-06, 01:22:04,VALID,999.648,VALID,0,VALID,88.5341,VALID,0,VALID,24.1696,VALID,5,VALID,0.354688,
2010-09-06, 01:23:04,VALID,999.615,VALID,0,VALID,88.5417,VALID,0,VALID,24.15,VALID,5,VALID,0.0894531,
2010-09-06, 01:24:04,VALID,999.584,VALID,0,VALID,88.557,VALID,0,VALID,24.15,VALID,5,VALID,0,
2010-09-06, 01:25:04,VALID,999.515,VALID,0,VALID,88.4044,VALID,0,VALID,24.1305,VALID,5,VALID,0,
2010-09-06, 01:26:04,VALID,999.512,VALID,0,VALID,88.4502,VALID,0,VALID,24.111,VALID,5,VALID,0,
2010-09-06, 01:27:04,VALID,999.47,VALID,0,VALID,88.7859,VALID,0,VALID,24.1305,VALID,5,VALID,0.321484,
2010-09-06, 01:28:04,VALID,999.497,VALID,0,VALID,88.5723,VALID,0,VALID,24.111,VALID,5,VALID,0.550781,
2010-09-06, 01:29:04,VALID,999.465,VALID,0,VALID,88.969,VALID,0,VALID,24.111,VALID,5,VALID,0.278125,
2010-09-06, 01:30:04,VALID,999.534,VALID,0,VALID,89.0911,VALID,0,VALID,24.111,VALID,5,VALID,0,
2010-09-06, 01:31:04,VALID,999.511,VALID,0,VALID,89.236,VALID,0,VALID,24.0701,VALID,5,VALID,0.0230469,
2010-09-06, 01:32:04,VALID,999.483,VALID,0,VALID,89.3581,VALID,0,VALID,24.0525,VALID,5,VALID,0.117578,
2010-09-06, 01:33:04,VALID,999.484,VALID,0,VALID,89.4039,VALID,0,VALID,24.0525,VALID,359,VALID,0.917969,
2010-09-06, 01:34:04,VALID,999.494,VALID,0,VALID,89.4649,VALID,0,VALID,24.0329,VALID,357,VALID,0.721094,
2010-09-06, 01:35:04,VALID,999.498,VALID,0,VALID,89.5183,VALID,0,VALID,24.0134,VALID,357,VALID,0.301953,
2010-09-06, 01:36:04,VALID,999.432,VALID,0,VALID,89.5946,VALID,0,VALID,23.9726,VALID,357,VALID,0.274219,
2010-09-06, 01:37:04,VALID,999.432,VALID,0,VALID,89.5794,VALID,0,VALID,23.9336,VALID,357,VALID,0.734766,
2010-09-06, 01:38:04,VALID,999.394,VALID,0,VALID,89.6328,VALID,0,VALID,23.914,VALID,357,VALID,0.367578,
2010-09-06, 01:39:04,VALID,999.405,VALID,0,VALID,89.6786,VALID,0,VALID,23.9159,VALID,357,VALID,0.375391,
2010-09-06, 01:40:04,VALID,999.429,VALID,0,VALID,89.7625,VALID,0,VALID,23.8963,VALID,357,VALID,0.667188,
2010-09-06, 01:41:04,VALID,999.412,VALID,0,VALID,89.5107,VALID,0,VALID,23.8963,VALID,357,VALID,0.734375,
2010-09-06, 01:42:04,VALID,999.435,VALID,0,VALID,89.2666,VALID,0,VALID,23.8768,VALID,357,VALID,0.384766,
2010-09-06, 01:43:04,VALID,999.454,VALID,0,VALID,89.1063,VALID,0,VALID,23.8768,VALID,357,VALID,0.357422,
2010-09-06, 01:44:04,VALID,999.468,VALID,0,VALID,89.1674,VALID,0,VALID,23.875,VALID,357,VALID,0.275,
2010-09-06, 01:45:04,VALID,999.453,VALID,0,VALID,89.381,VALID,0,VALID,23.8768,VALID,357,VALID,0.623828,
2010-09-06, 01:46:04,VALID,999.493,VALID,0,VALID,89.5641,VALID,0,VALID,23.8183,VALID,357,VALID,0.846094,
2010-09-06, 01:47:04,VALID,999.489,VALID,0,VALID,89.854,VALID,0,VALID,23.7988,VALID,357,VALID,0.897656,
2010-09-06, 01:48:04,VALID,999.539,VALID,0,VALID,90.0371,VALID,0,VALID,23.7597,VALID,357,VALID,0.752344,
2010-09-06, 01:49:04,VALID,999.529,VALID,0,VALID,90.1363,VALID,0,VALID,23.7402,VALID,357,VALID,0.638281,
2010-09-06, 01:50:04,VALID,999.531,VALID,0,VALID,90.2508,VALID,0,VALID,23.7207,VALID,357,VALID,0.528125,
2010-09-06, 01:51:04,VALID,999.516,VALID,0,VALID,90.3805,VALID,0,VALID,23.6604,VALID,357,VALID,0.905469,
2010-09-06, 01:52:04,VALID,999.461,VALID,0,VALID,90.4949,VALID,0,VALID,23.6817,VALID,5,VALID,1.31953,
2010-09-06, 01:53:04,VALID,999.447,VALID,0,VALID,90.6704,VALID,0,VALID,23.6427,VALID,5,VALID,1.58242,
2010-09-06, 01:54:04,VALID,999.432,VALID,0,VALID,90.617,VALID,0,VALID,23.6232,VALID,8,VALID,1.51953,
2010-09-06, 01:55:04,VALID,999.449,VALID,0,VALID,90.4873,VALID,0,VALID,23.5823,VALID,28,VALID,1.44961,
2010-09-06, 01:56:04,VALID,999.488,VALID,0,VALID,90.5941,VALID,0,VALID,23.5841,VALID,33,VALID,1.39492,
2010-09-06, 01:57:04,VALID,999.524,VALID,0,VALID,90.6704,VALID,0,VALID,23.5433,VALID,53,VALID,1.41289,
2010-09-06, 01:58:04,VALID,999.584,VALID,0,VALID,90.7772,VALID,0,VALID,23.5451,VALID,52,VALID,1.07578,
2010-09-06, 01:59:04,VALID,999.541,VALID,0,VALID,90.8535,VALID,0,VALID,23.5646,VALID,32,VALID,1.10625,
2010-09-06, 02:00:04,VALID,999.524,VALID,0,VALID,90.8306,VALID,0,VALID,23.5238,VALID,14,VALID,1.27734,
2010-09-06, 02:01:04,VALID,999.522,VALID,0,VALID,90.6475,VALID,0,VALID,23.5256,VALID,7,VALID,1.00039,
2010-09-06, 02:02:04,VALID,999.537,VALID,0,VALID,90.556,VALID,0,VALID,23.4848,VALID,15,VALID,0.838672,
2010-09-06, 02:03:04,VALID,999.493,VALID,0,VALID,90.5254,VALID,0,VALID,23.4653,VALID,18,VALID,0.551953,
2010-09-06, 02:04:04,VALID,999.482,VALID,0,VALID,90.4949,VALID,0,VALID,23.4866,VALID,18,VALID,0.514844,
2010-09-06, 02:05:04,VALID,999.467,VALID,0,VALID,90.4568,VALID,0,VALID,23.4653,VALID,18,VALID,0.335156,
2010-09-06, 02:06:04,VALID,999.466,VALID,0,VALID,90.4415,VALID,0,VALID,23.4866,VALID,18,VALID,0.363281,
2010-09-06, 02:07:04,VALID,999.451,VALID,0,VALID,90.4034,VALID,0,VALID,23.5061,VALID,18,VALID,0.510156,
2010-09-06, 02:08:04,VALID,999.412,VALID,0,VALID,90.2355,VALID,0,VALID,23.4848,VALID,18,VALID,0.817969,
2010-09-06, 02:09:04,VALID,999.398,VALID,0,VALID,90.06,VALID,0,VALID,23.5043,VALID,18,VALID,0.887891,
2010-09-06, 02:10:04,VALID,999.401,VALID,0,VALID,89.2513,VALID,0,VALID,23.5238,VALID,7,VALID,0.892578,
2010-09-06, 02:11:04,VALID,999.428,VALID,0,VALID,89.2894,VALID,0,VALID,23.6036,VALID,7,VALID,0.516406,
2010-09-06, 02:12:04,VALID,999.432,VALID,0,VALID,88.9461,VALID,0,VALID,23.6036,VALID,67,VALID,0.791016,
2010-09-06, 02:13:04,VALID,999.412,VALID,0,VALID,88.5799,VALID,0,VALID,23.6036,VALID,67,VALID,0.910547,
2010-09-06, 02:14:04,VALID,999.388,VALID,0,VALID,88.3357,VALID,0,VALID,23.6019,VALID,48,VALID,0.727734,
2010-09-06, 02:15:04,VALID,999.394,VALID,0,VALID,88.3586,VALID,0,VALID,23.6232,VALID,48,VALID,0.455859,
2010-09-06, 02:16:04,VALID,999.417,VALID,0,VALID,88.5417,VALID,0,VALID,23.6019,VALID,48,VALID,0.603516,
2010-09-06, 02:17:04,VALID,999.375,VALID,0,VALID,88.5494,VALID,0,VALID,23.5841,VALID,48,VALID,0.433203,
2010-09-06, 02:18:04,VALID,999.421,VALID,0,VALID,88.618,VALID,0,VALID,23.5628,VALID,48,VALID,0.273047,
2010-09-06, 02:19:05,VALID,999.425,VALID,0,VALID,88.6943,VALID,0,VALID,23.5433,VALID,48,VALID,0.514844,
2010-09-06, 02:20:05,VALID,999.437,VALID,0,VALID,88.8546,VALID,0,VALID,23.5841,VALID,107,VALID,0.650781,
2010-09-06, 02:21:05,VALID,999.418,VALID,0,VALID,89.0606,VALID,0,VALID,23.5628,VALID,116,VALID,0.678516,
2010-09-06, 02:22:05,VALID,999.422,VALID,0,VALID,89.2208,VALID,0,VALID,23.6036,VALID,116,VALID,0.562891,
2010-09-06, 02:23:05,VALID,999.474,VALID,0,VALID,89.1826,VALID,0,VALID,23.5841,VALID,116,VALID,0.877344,
2010-09-06, 02:24:05,VALID,999.474,VALID,0,VALID,89.1063,VALID,0,VALID,23.5628,VALID,119,VALID,0.834375,
2010-09-06, 02:25:05,VALID,999.443,VALID,0,VALID,89.4573,VALID,0,VALID,23.5841,VALID,136,VALID,0.710547,
2010-09-06, 02:26:05,VALID,999.451,VALID,0,VALID,89.5641,VALID,0,VALID,23.5841,VALID,138,VALID,0.373047,
2010-09-06, 02:27:05,VALID,999.446,VALID,0,VALID,89.5794,VALID,0,VALID,23.5646,VALID,138,VALID,0.0117188,
2010-09-06, 02:28:05,VALID,999.441,VALID,0,VALID,89.7167,VALID,0,VALID,23.5451,VALID,138,VALID,0.00585938,
2010-09-06, 02:29:05,VALID,999.419,VALID,0,VALID,89.8311,VALID,0,VALID,23.5043,VALID,19,VALID,0.844531,
2010-09-06, 02:30:05,VALID,999.45,VALID,0,VALID,90.0295,VALID,0,VALID,23.4653,VALID,13,VALID,0.862891,
2010-09-06, 02:31:05,VALID,999.463,VALID,0,VALID,90.1897,VALID,0,VALID,23.4671,VALID,20,VALID,0.808984,
2010-09-06, 02:32:05,VALID,999.479,VALID,0,VALID,90.4873,VALID,0,VALID,23.4671,VALID,33,VALID,0.948047,
2010-09-06, 02:33:05,VALID,999.466,VALID,0,VALID,90.556,VALID,0,VALID,23.4671,VALID,44,VALID,1.05391,
2010-09-06, 02:34:05,VALID,999.417,VALID,0,VALID,90.4415,VALID,0,VALID,23.4458,VALID,45,VALID,0.648047,
2010-09-06, 02:35:05,VALID,999.406,VALID,0,VALID,90.3194,VALID,0,VALID,23.4671,VALID,45,VALID,0.423047,
2010-09-06, 02:36:05,VALID,999.423,VALID,0,VALID,90.1592,VALID,0,VALID,23.4475,VALID,45,VALID,0.403906,
2010-09-06, 02:37:05,VALID,999.397,VALID,0,VALID,90.1363,VALID,0,VALID,23.4067,VALID,45,VALID,0.589844,
2010-09-06, 02:38:05,VALID,999.4,VALID,0,VALID,90.3347,VALID,0,VALID,23.428,VALID,45,VALID,0.417578,
2010-09-06, 02:39:05,VALID,999.398,VALID,0,VALID,90.4186,VALID,0,VALID,23.4085,VALID,45,VALID,0.479688,
2010-09-06, 02:40:05,VALID,999.395,VALID,0,VALID,90.4797,VALID,0,VALID,23.3677,VALID,65,VALID,0.748438,
2010-09-06, 02:41:05,VALID,999.385,VALID,0,VALID,90.6094,VALID,0,VALID,23.3695,VALID,78,VALID,1.01797,
2010-09-06, 02:42:05,VALID,999.415,VALID,0,VALID,90.6551,VALID,0,VALID,23.389,VALID,109,VALID,0.94375,
2010-09-06, 02:43:05,VALID,999.407,VALID,0,VALID,90.472,VALID,0,VALID,23.3482,VALID,120,VALID,1.05078,
2010-09-06, 02:44:05,VALID,999.382,VALID,0,VALID,90.7772,VALID,0,VALID,23.3677,VALID,111,VALID,1.375,
2010-09-06, 02:45:05,VALID,999.394,VALID,0,VALID,91.1587,VALID,0,VALID,23.4067,VALID,107,VALID,1.64609,
2010-09-06, 02:46:05,VALID,999.423,VALID,0,VALID,91.2579,VALID,0,VALID,23.4475,VALID,109,VALID,1.44141,
2010-09-06, 02:47:05,VALID,999.435,VALID,0,VALID,91.1587,VALID,0,VALID,23.4866,VALID,119,VALID,1.41836,
2010-09-06, 02:48:05,VALID,999.416,VALID,0,VALID,91.1511,VALID,0,VALID,23.4653,VALID,134,VALID,1.05938,
2010-09-06, 02:49:05,VALID,999.399,VALID,0,VALID,91.1663,VALID,0,VALID,23.4653,VALID,136,VALID,0.658594,
2010-09-06, 02:50:05,VALID,999.351,VALID,0,VALID,91.1663,VALID,0,VALID,23.4671,VALID,144,VALID,0.510547,
2010-09-06, 02:51:05,VALID,999.351,VALID,0,VALID,91.1282,VALID,0,VALID,23.4671,VALID,155,VALID,0.786719,
2010-09-06, 02:52:05,VALID,999.341,VALID,0,VALID,91.029,VALID,0,VALID,23.4866,VALID,155,VALID,0.724219,
2010-09-06, 02:53:05,VALID,999.372,VALID,0,VALID,90.5712,VALID,0,VALID,23.5061,VALID,155,VALID,0.43125,
2010-09-06, 02:54:05,VALID,999.43,VALID,0,VALID,89.9685,VALID,0,VALID,23.5451,VALID,155,VALID,0.430859,
2010-09-06, 02:55:05,VALID,999.425,VALID,0,VALID,89.5031,VALID,0,VALID,23.5841,VALID,87,VALID,0.782422,
2010-09-06, 02:56:05,VALID,999.438,VALID,0,VALID,89.6633,VALID,0,VALID,23.5238,VALID,77,VALID,0.903516,
2010-09-06, 02:57:05,VALID,999.527,VALID,0,VALID,90.1287,VALID,0,VALID,23.5256,VALID,77,VALID,0.604297,
2010-09-06, 02:58:05,VALID,999.534,VALID,0,VALID,90.3652,VALID,0,VALID,23.5061,VALID,77,VALID,0.323047,
2010-09-06, 02:59:05,VALID,999.56,VALID,0,VALID,90.5102,VALID,0,VALID,23.4866,VALID,77,VALID,0.166797,
2010-09-06, 03:00:05,VALID,999.608,VALID,0,VALID,90.5865,VALID,0,VALID,23.4866,VALID,77,VALID,0.235156,
2010-09-06, 03:01:05,VALID,999.598,VALID,0,VALID,90.556,VALID,0,VALID,23.4458,VALID,77,VALID,0.428516,
2010-09-06, 03:02:05,VALID,999.637,VALID,0,VALID,90.6094,VALID,0,VALID,23.428,VALID,109,VALID,0.723437,
2010-09-06, 03:03:05,VALID,999.625,VALID,0,VALID,90.8611,VALID,0,VALID,23.4475,VALID,105,VALID,0.828125,
2010-09-06, 03:04:05,VALID,999.583,VALID,0,VALID,90.7696,VALID,0,VALID,23.4671,VALID,73,VALID,1.09609,
2010-09-06, 03:05:05,VALID,999.582,VALID,0,VALID,90.4186,VALID,0,VALID,23.4085,VALID,44,VALID,1.31562,
2010-09-06, 03:06:05,VALID,999.561,VALID,0,VALID,90.2203,VALID,0,VALID,23.3695,VALID,39,VALID,1.26484,
2010-09-06, 03:07:05,VALID,999.581,VALID,0,VALID,90.0295,VALID,0,VALID,23.35,VALID,34,VALID,0.817578,
2010-09-06, 03:08:05,VALID,999.601,VALID,0,VALID,90.0753,VALID,0,VALID,23.2897,VALID,34,VALID,0.248828,
2010-09-06, 03:09:05,VALID,999.656,VALID,0,VALID,90.1897,VALID,0,VALID,23.2702,VALID,34,VALID,0.380078,
2010-09-06, 03:10:05,VALID,999.666,VALID,0,VALID,90.4339,VALID,0,VALID,23.2915,VALID,34,VALID,0.254297,
2010-09-06, 03:11:05,VALID,999.64,VALID,0,VALID,90.556,VALID,0,VALID,23.2915,VALID,34,VALID,0.157422,
2010-09-06, 03:12:05,VALID,999.669,VALID,0,VALID,90.7009,VALID,0,VALID,23.2719,VALID,34,VALID,0.691016,
2010-09-06, 03:13:05,VALID,999.645,VALID,0,VALID,90.678,VALID,0,VALID,23.2719,VALID,34,VALID,0.9875,
2010-09-06, 03:14:05,VALID,999.636,VALID,0,VALID,90.7467,VALID,0,VALID,23.2329,VALID,25,VALID,1.10977,
2010-09-06, 03:15:05,VALID,999.679,VALID,0,VALID,90.6933,VALID,0,VALID,23.2134,VALID,23,VALID,1.01836,
2010-09-06, 03:16:05,VALID,999.669,VALID,0,VALID,90.7009,VALID,0,VALID,23.1531,VALID,23,VALID,0.385547,
2010-09-06, 03:17:05,VALID,999.717,VALID,0,VALID,90.8077,VALID,0,VALID,23.1354,VALID,23,VALID,0.414844,
2010-09-06, 03:18:05,VALID,999.735,VALID,0,VALID,91.0061,VALID,0,VALID,23.1549,VALID,336,VALID,0.465625,
2010-09-06, 03:19:05,VALID,999.713,VALID,0,VALID,91.2121,VALID,0,VALID,23.1549,VALID,290,VALID,0.33125,
2010-09-06, 03:20:05,VALID,999.722,VALID,0,VALID,91.2884,VALID,0,VALID,23.1744,VALID,290,VALID,0.207813,
2010-09-06, 03:21:05,VALID,999.705,VALID,0,VALID,91.3266,VALID,0,VALID,23.1744,VALID,290,VALID,0.212891,
2010-09-06, 03:22:05,VALID,999.716,VALID,0,VALID,91.3266,VALID,0,VALID,23.1939,VALID,290,VALID,0.128516,
2010-09-06, 03:23:05,VALID,999.716,VALID,0,VALID,91.3189,VALID,0,VALID,23.2329,VALID,290,VALID,0.227734,
2010-09-06, 03:24:05,VALID,999.724,VALID,0,VALID,91.2731,VALID,0,VALID,23.2524,VALID,285,VALID,0.522266,
2010-09-06, 03:25:05,VALID,999.711,VALID,0,VALID,91.1968,VALID,0,VALID,23.2719,VALID,261,VALID,0.617578,
2010-09-06, 03:26:05,VALID,999.693,VALID,0,VALID,91.1053,VALID,0,VALID,23.2915,VALID,261,VALID,0.357031,
2010-09-06, 03:27:05,VALID,999.664,VALID,0,VALID,91.0214,VALID,0,VALID,23.3305,VALID,261,VALID,0.354297,
2010-09-06, 03:28:05,VALID,999.676,VALID,0,VALID,90.9603,VALID,0,VALID,23.311,VALID,261,VALID,0.175781,
2010-09-06, 03:29:05,VALID,999.696,VALID,0,VALID,90.9451,VALID,0,VALID,23.2915,VALID,261,VALID,0.255859,
2010-09-06, 03:30:05,VALID,999.706,VALID,0,VALID,90.9832,VALID,0,VALID,23.2719,VALID,261,VALID,0.308984,
2010-09-06, 03:31:05,VALID,999.705,VALID,0,VALID,90.9451,VALID,0,VALID,23.2719,VALID,261,VALID,0.594531,
2010-09-06, 03:32:05,VALID,999.694,VALID,0,VALID,90.9985,VALID,0,VALID,23.2329,VALID,324,VALID,0.592188,
2010-09-06, 03:33:05,VALID,999.687,VALID,0,VALID,91.1053,VALID,0,VALID,23.1939,VALID,324,VALID,0.657812,
2010-09-06, 03:34:05,VALID,999.668,VALID,0,VALID,91.2197,VALID,0,VALID,23.1549,VALID,353,VALID,0.866797,
2010-09-06, 03:35:05,VALID,999.688,VALID,0,VALID,91.2274,VALID,0,VALID,23.1159,VALID,28,VALID,1.05547,
2010-09-06, 03:36:05,VALID,999.67,VALID,0,VALID,91.2121,VALID,0,VALID,23.0786,VALID,28,VALID,1.10156,
2010-09-06, 03:37:05,VALID,999.704,VALID,0,VALID,91.2655,VALID,0,VALID,23.0183,VALID,28,VALID,0.905859,
2010-09-06, 03:38:05,VALID,999.717,VALID,0,VALID,91.3189,VALID,0,VALID,22.9598,VALID,28,VALID,0.439453,
2010-09-06, 03:39:05,VALID,999.722,VALID,0,VALID,91.3418,VALID,0,VALID,22.9208,VALID,28,VALID,0.610156,
2010-09-06, 03:40:05,VALID,999.724,VALID,0,VALID,91.4639,VALID,0,VALID,22.8818,VALID,28,VALID,0.594141,
2010-09-06, 03:41:05,VALID,999.743,VALID,0,VALID,91.6546,VALID,0,VALID,22.8623,VALID,28,VALID,0.84375,
2010-09-06, 03:42:05,VALID,999.749,VALID,0,VALID,91.8759,VALID,0,VALID,22.8623,VALID,47,VALID,0.967969,
2010-09-06, 03:43:05,VALID,999.791,VALID,0,VALID,92.0056,VALID,0,VALID,22.8623,VALID,49,VALID,0.982813,
2010-09-06, 03:44:05,VALID,999.772,VALID,0,VALID,92.1124,VALID,0,VALID,22.8623,VALID,49,VALID,0.675781,
2010-09-06, 03:45:05,VALID,999.78,VALID,0,VALID,92.1048,VALID,0,VALID,22.8623,VALID,49,VALID,0.458984,
2010-09-06, 03:46:05,VALID,999.776,VALID,0,VALID,92.0895,VALID,0,VALID,22.8818,VALID,41,VALID,0.553125,